Regional Weather Roundup
Issued by NWS

Home | Current Version | Previous Version | Text Only | Print | Product List | Glossary On
Versions: 1 2 3 4 5 6 7 8 9 10 11 12 13 14 15 16 17 18 19 20 21 22 23 24 25 26 27 28 29 30 31 32 33 34 35 36 37 38 39 40 41 42 43 44 45 46 47 48 49 50
000
ASUS43 KMKX 260800
RWRWI

WISCONSIN REGIONAL WEATHER ROUNDUP
NATIONAL WEATHER SERVICE MILWAUKEE/SULLIVAN WI
200 AM CST WED NOV 26 2014

NOTE: "FAIR" INDICATES FEW OR NO CLOUDS BELOW 12,000 FEET WITH NO
SIGNIFICANT WEATHER AND/OR OBSTRUCTIONS TO VISIBILITY.

WIZ001-002-006>008-014>016-023>028-260900-
NORTHWEST WISCONSIN

CITY           SKY/WX    TMP DP  RH WIND       PRES   REMARKS
SUPERIOR ARPT  CLOUDY    20  15  81 S3        30.11S
ASHLAND        CLOUDY    17  14  88 CALM      30.13R
HAYWARD        CLOUDY    20  15  81 CALM      30.08R
SIREN          CLOUDY    22  17  83 E5        30.07S WCI  15
CUMBERLAND     CLOUDY    21  16  79 E5        30.06S WCI  15
RICE LAKE      CLOUDY    22  17  82 E5        30.09S WCI  16
CHETEK         CLOUDY    22  17  83 E3        30.07F
LADYSMITH      CLOUDY    22  18  84 E5        30.09S WCI  15
EAU CLAIRE     NOT AVBL
MENOMONIE      CLOUDY    23  17  76 E6        30.07F WCI  16
NEW RICHMOND   CLOUDY    23  16  72 SE6       30.04S WCI  16
OSCEOLA        CLOUDY    24  18  77 E7        30.08R WCI  16
$$

WIZ003>005-009-010-017-018-260900-
NORTH CENTRAL WISCONSIN

CITY           SKY/WX    TMP DP  RH WIND       PRES   REMARKS
MANITOWISH WTR CLOUDY     9   7  92 CALM      30.06R
ARBOR VITAE    CLOUDY    16  13  89 CALM      30.06R
WOODRUFF       CLOUDY    16  13  89 CALM      30.06R
RHINELANDER    CLOUDY    10   8  92 E5        30.07S WCI   2
EAGLE RIVER    CLOUDY     7   3  83 CALM      30.07S
LAND O LAKES   CLEAR     -8 -12  80 CALM      30.07F
PHILLIPS       CLOUDY    16  13  90 CALM      30.07S
TOMAHAWK       CLOUDY    14  11  90 CALM      30.09R
MEDFORD        CLOUDY    19  15  88 CALM      30.08R
MERRILL        CLOUDY    13  11  92 CALM      30.09F
$$

WIZ029-030-035-036-043>047-260900-
CENTRAL WISCONSIN

CITY           SKY/WX    TMP DP  RH WIND       PRES   REMARKS
WAUSAU         CLOUDY    14  11  87 E5        30.09F WCI   6
MOSINEE        CLOUDY    14  14 100 E3        30.11R
MARSHFIELD     CLOUDY    20  15  81 E5        30.09R WCI  13
STEVENS POINT  CLOUDY    13  11  92 CALM      30.13S
WAUPACA        CLOUDY    12   8  85 CALM      30.16S
WAUTOMA        NOT AVBL
WISC RAPIDS    CLOUDY    17  13  84 SE5       30.13R WCI  10
CAMP DOUGLAS   NOT AVBL
$$

WIZ011>013-019>022-031-037>040-048>050-260900-
NORTHEAST WISCONSIN

CITY           SKY/WX    TMP DP  RH WIND       PRES   REMARKS
ANTIGO         CLOUDY     7   5  91 CALM      30.10R
SHAWANO        MOCLDY    11   7  87 CALM      30.17S FOG
OCONTO         CLEAR      9   8  93 CALM      30.19S
STURGEON BAY   CLOUDY    21  14  73 S3        30.18S
GREEN BAY      CLOUDY    12   9  87 CALM      30.18S
MANITOWOC      CLOUDY    19  16  86 CALM      30.19F
APPLETON       CLEAR     14  14 100 CALM      30.16S
CLINTONVILLE     N/A      9   5  85 CALM      30.16S FOG
OSHKOSH        CLEAR     12   9  87 S3        30.16S FOG
$$

WIZ032>034-041-042-053>061-260900-
SOUTHWEST WISCONSIN

CITY           SKY/WX    TMP DP  RH WIND       PRES   REMARKS
LA CROSSE      CLOUDY    20  14  77 SE6       30.10F WCI  12
SPARTA         CLOUDY    17  15  91 CALM      30.12S
VIROQUA        PTCLDY    15  13  92 SE8       30.07S WCI   3
BOSCOBEL       MOCLDY    11   7  84 CALM      30.13S
PRAIRIE DU CHI MOCLDY    16  12  86 E3        30.11S
PLATTEVILLE    MOCLDY    15  13  92 CALM      30.11S
$$

WIZ056-057-062-063-064-067-068-260900-
SOUTH CENTRAL WISCONSIN

CITY           SKY/WX    TMP DP  RH WIND       PRES   REMARKS
REEDSBURG      PTCLDY     7   4  90 CALM      30.12S
BARABOO/DELLS  PTCLDY     7   4  89 SE5       30.12S WCI  -2
LONE ROCK      NOT AVBL
MINERAL POINT  PTCLDY    16  12  86 E3        30.09S
MADISON        CLEAR     12  10  92 N3        30.14R
MIDDLETON      CLEAR      3  -1  81 CALM      30.14R
WATERTOWN      CLEAR     10   8  95 CALM      30.14F
MONROE         CLEAR     12  12 100 SE5       30.10F WCI   4
JANESVILLE     CLEAR     10   7  85 E5        30.14F WCI   2
$$

WIZ051-052-058>065-066-070>072-260900-
SOUTHEAST WISCONSIN

CITY           SKY/WX    TMP DP  RH WIND       PRES   REMARKS
MILWAUKEE      PTCLDY    18  13  80 SW3       30.18S
WAUKESHA       PTCLDY    12  10  92 CALM      30.17F FOG
MILWAUKEE/TIMM MOCLDY    19  14  79 S3        30.19S
RACINE         PTCLDY    16  12  84 W5        30.21R WCI   9
BURLINGTON     CLEAR      5   3  91 CALM      30.18R FOG
KENOSHA        MOCLDY    12   9  87 CALM      30.19R FOG
FOND DU LAC    CLEAR     11   6  81 CALM      30.16S
SHEBOYGAN      CLOUDY    20  14  77 N3        30.17F
WEST BEND      CLOUDY    19  14  79 CALM      30.17R
JUNEAU         CLEAR     11  10  92 E6        30.15F FOG     WCI   2
$$

LSZ147-162-260900-
LAKE SUPERIOR

STATION/POSITION TIME  TEMP    WIND        PRES    WAVE
                       AIR SEA DIR/SP/G            HT/PER
                 (UTC) (F)     (DEG/KT/KT) (MB)    (FT/S)
DEVILS ISLAND    0700   24     220/ 10/ 12 1020.4R
PORT WING        0700   18     140/  3/  4 1020.0R
SAXON HARBOR     0700   13     200/  3/  5 1019.6S
$$

LMZ867-665-643>646-260900-
LAKE MICHIGAN

STATION/POSITION TIME  TEMP    WIND        PRES    WAVE
                       AIR SEA DIR/SP/G            HT/PER
                 (UTC) (F)     (DEG/KT/KT) (MB)    (FT/S)
CHAMBERS ISLAND  0700   22     250/  5/ 12 1022.0R
N MID LAKE BUOY  0650   29 42  260/  8/ 12 1022.1R   1/ 5
NORTHPORT PIER   0704   24     240/  3/  7 1022.0R
SISTER BAY       0658             CALM       N/A
ALGOMA LAKESHORE 0643             CALM       N/A
KEWAUNEE LAKESHO 0700   21      CALM  /  2 1021.4R
SHEBOYGAN LAKESH 0700   21 34  300/  6/  7 1023.5R
PORT WASHINGTON  0740   21     250/  5/  8 1023.0S
MILWAUKEE LAKESH 0700   21     190/  4/  6   N/A
S MID LAKE BUOY  0650   29 42  220/ 12/ 17 1022.4F   2/ 3
KENOSHA   LAKESH 0700   19     240/  4/  7 1022.0S
$$

TC  - TEMPERATURE IN CELSIUS
VSB - VISIBILITY IN STATUTE MILES
WCI - WIND CHILL INDEX
HX  - HEAT INDEX




USA.gov is the U.S. government's official web portal to all federal, state and local government web resources and services.